Theta_e
344 346 344 344 344 343 343 340 341 339 336 344 344 343 339 339 342 344 344 342 339 339 338 340 343 343 343 343 342 339 338 342 340 338 339 339 338 336 335 334 335 337 339
343 346 344 344 344 343 343 340 339 341 337 342 344 345 345 343 345 344 343 341 339 338 339 341 342 340 339 340 338 339 341 337 337 336 335 335 335 337 337 335 338 340 339
345 346 345 344 342 342 341 337 340 340 339 341 343 344 344 344 344 343 341 340 338 337 339 340 339 338 338 339 337 336 335 336 335 334 331 329 332 333 331 332 332 335 336
345 345 345 343 341 339 338 338 338 340 341 339 342 342 344 344 342 341 340 339 338 338 338 337 338 339 338 336 331 328 326 328 327 325 325 326 325 331 333 333 333 333 333
345 344 345 342 340 340 335 341 331 337 341 341 342 343 344 343 342 340 339 337 337 337 336 337 334 334 333 334 327 324 321 323 320 326 329 329 329 330 330 330 331 332 332
344 344 345 342 341 340 333 341 338 328 339 342 341 342 342 342 341 338 336 336 337 336 336 336 336 336 335 331 326 317 318 320 329 330 331 331 331 331 331 330 330 330 330
343 344 344 341 341 338 335 342 338 328 328 341 341 342 342 341 339 337 335 336 337 336 336 336 336 335 333 330 325 319 318 324 329 331 332 333 333 332 330 330 330 330 329
342 343 343 341 340 332 341 341 335 328 328 338 341 341 343 341 338 336 336 335 337 337 336 334 334 334 333 329 323 322 319 322 327 330 332 332 333 333 331 329 328 328 328
342 342 342 342 339 335 342 340 331 328 333 333 340 341 342 338 336 335 336 337 337 337 334 331 330 328 328 327 322 321 322 321 326 327 328 331 331 333 330 328 327 325 323
339 342 342 341 340 339 341 339 334 330 331 333 334 338 338 337 335 334 334 335 336 335 332 329 327 326 324 323 322 321 321 321 325 325 326 327 326 331 326 326 326 325 323
334 330 341 341 340 338 340 340 337 332 328 334 331 332 335 335 333 333 333 333 334 333 330 327 325 324 324 324 323 321 321 323 323 324 323 318 321 331 329 326 325 326 325
331 327 332 339 340 337 338 341 341 338 333 331 332 333 334 332 332 332 333 333 329 326 325 325 324 322 322 325 323 322 324 323 322 322 322 318 319 323 328 326 327 326 326
326 325 328 335 336 336 333 340 340 340 336 333 331 332 333 333 333 332 332 332 331 326 328 327 326 325 324 323 324 323 324 322 322 321 320 320 319 320 326 326 327 328 327
325 325 327 332 336 334 334 334 341 341 339 337 332 330 331 331 332 331 331 331 330 328 328 327 326 325 324 324 324 323 322 323 324 324 325 326 325 323 323 326 327 329 330
329 327 328 331 333 336 336 332 336 341 340 338 336 331 329 330 331 330 329 329 328 328 326 326 325 324 324 325 328 328 328 329 329 328 329 329 329 329 329 326 327 328 330
329 327 327 325 328 329 335 334 332 337 340 340 337 334 331 331 329 328 327 328 328 327 326 325 324 325 326 329 330 330 330 331 331 331 331 331 330 330 330 329 328 327 329
327 327 327 327 329 329 334 335 331 332 337 340 340 338 334 334 332 331 330 332 331 330 328 326 324 329 331 330 330 330 331 332 331 332 332 331 331 329 328 328 327 328 328
328 329 330 326 327 329 336 334 333 334 333 335 339 339 338 336 335 334 334 334 333 330 329 329 329 330 329 329 329 331 331 332 332 331 331 331 330 330 330 329 328 328 328
329 330 329 329 328 328 336 335 333 334 336 336 336 336 338 339 336 334 332 332 333 330 329 329 330 329 328 328 329 331 332 332 331 331 330 330 330 330 330 329 328 328 328
329 329 328 327 326 329 334 335 334 332 332 333 333 336 336 337 337 335 331 332 332 331 329 329 328 328 328 329 331 331 332 331 331 331 330 329 329 329 327 327 329 330 329
329 329 328 328 327 329 334 336 335 336 336 335 333 332 333 332 332 333 330 332 332 332 331 330 329 328 329 331 333 330 330 331 330 329 328 326 326 325 326 327 329 329 329
328 330 329 329 329 327 330 333 333 333 332 332 334 335 335 334 333 333 332 332 332 331 333 331 329 330 331 332 331 332 330 329 327 326 327 326 325 324 325 324 325 326 327
327 329 329 329 329 328 329 329 329 329 330 331 332 332 333 333 333 333 333 332 332 329 333 333 332 332 333 332 330 330 330 329 327 326 326 325 323 323 324 323 322 322 323
324 327 324 328 331 329 329 329 329 327 330 329 328 327 332 330 331 332 330 331 332 332 330 331 331 332 332 331 330 329 331 329 328 325 323 322 322 319 320 321 320 319 320
324 327 324 324 328 329 328 330 329 328 329 327 328 327 330 327 327 330 332 331 328 330 330 331 330 329 329 328 327 327 328 330 328 327 320 318 319 319 319 318 318 317 316
314 316 322 323 328 330 329 330 331 329 328 329 327 326 326 326 327 328 328 330 331 331 330 329 328 324 324 322 322 322 324 323 321 320 321 318 318 318 317 317 316 315 315
Wind_Speed
16 22 25 24 21 18 16 15 14 14 17 18 18 18 19 19 19 21 21 20 21 20 20 20 16 18 18 19 17 17 17 17 18 21 22 19 17 16 18 17 14 13 14
21 23 25 24 22 19 17 16 16 16 16 20 20 19 20 21 22 22 20 20 20 20 20 18 18 18 17 16 16 17 17 18 18 19 17 14 16 14 14 14 13 15 15
22 23 24 24 22 20 19 18 18 18 18 20 21 21 23 24 22 20 20 20 20 20 19 19 18 17 16 16 15 14 15 15 14 14 15 12 11 11 13 13 13 14 14
22 22 23 23 21 19 20 18 19 18 16 20 21 23 23 24 22 20 20 20 21 20 19 17 15 15 15 15 14 13 11 12 12 14 11 12 12 12 11 10 10 10 9
20 22 22 24 22 19 21 20 18 18 16 19 22 23 24 24 21 21 20 22 21 20 18 15 15 15 15 14 13 11 11 12 14 12 12 11 11 11 11 10 9 9 9
21 20 21 24 23 20 22 21 19 17 17 16 19 23 25 23 20 20 22 22 20 19 17 15 17 16 15 13 11 12 13 14 13 10 11 12 11 10 10 10 10 10 9
21 19 19 23 22 20 23 23 19 16 18 17 17 21 24 22 19 19 22 22 19 18 16 16 17 15 14 12 11 11 12 12 9 9 9 9 9 9 9 9 9 9 9
19 18 19 20 21 22 23 22 18 16 17 19 16 20 21 20 17 17 18 21 18 16 15 15 15 14 12 10 10 10 10 10 8 8 7 7 8 7 8 8 8 8 8
12 16 17 18 17 22 23 21 17 16 18 20 20 17 19 18 15 16 16 17 17 15 15 14 13 12 11 9 8 8 7 9 6 5 5 5 6 5 6 6 7 7 7
8 15 16 17 17 18 20 20 17 16 19 19 19 17 16 15 16 16 15 15 16 16 15 13 12 11 10 9 7 7 6 5 3 4 3 3 5 3 3 4 4 5 6
11 17 14 17 18 18 19 20 18 16 18 21 18 17 16 14 15 16 14 15 16 15 14 12 11 10 9 8 7 6 5 3 3 3 3 2 3 2 1 2 3 3 4
14 26 16 18 18 18 18 19 18 17 16 16 17 18 15 15 15 14 14 15 14 14 13 11 10 10 8 6 5 5 3 3 3 3 3 2 1 2 1 2 3 2 3
24 26 17 19 18 17 17 18 19 18 16 15 16 18 16 16 15 13 12 12 11 12 10 9 8 7 7 6 6 6 5 4 4 3 4 3 3 2 2 3 3 3 3
30 20 28 19 19 17 14 19 17 18 16 15 16 17 17 16 16 15 14 13 12 11 10 10 9 8 7 7 6 6 6 5 4 4 4 3 3 3 4 4 5 5 5
32 36 34 17 9 21 14 15 18 17 18 15 15 16 16 15 15 15 14 13 12 11 11 10 9 9 8 8 7 7 6 6 5 5 4 5 4 4 5 6 8 8 8
31 31 40 33 8 10 19 16 17 18 18 17 15 15 15 14 14 13 12 12 12 11 11 11 10 10 9 9 8 8 8 7 7 6 6 6 7 8 9 10 11 11 10
40 40 34 30 24 19 17 17 16 18 18 16 16 16 16 14 13 12 12 12 11 11 11 10 11 10 9 8 8 8 7 7 8 7 7 7 8 9 8 10 13 13 13
30 31 27 33 34 29 20 24 17 16 17 17 17 16 17 16 13 13 12 12 11 11 11 12 11 10 10 9 9 8 8 7 7 8 8 9 9 10 12 13 13 14 15
28 27 23 25 29 28 20 18 19 16 17 15 15 16 16 16 15 15 13 13 13 12 12 12 12 12 11 10 9 9 8 7 9 9 10 10 11 12 12 14 16 15 13
22 21 24 29 33 29 19 13 12 13 14 16 18 16 15 16 17 17 15 15 14 14 14 14 14 13 12 11 9 8 9 9 9 10 10 10 10 11 10 11 10 10 13
13 18 30 27 26 21 12 15 13 14 15 12 14 15 16 17 16 17 17 17 16 16 16 17 16 14 13 11 8 10 10 9 11 11 7 5 4 8 6 5 6 6 7
13 20 22 21 19 23 15 10 15 13 8 8 9 10 13 17 18 18 18 17 17 17 17 17 17 14 14 14 9 5 4 5 3 6 7 6 6 6 4 4 5 5 4
12 8 15 20 11 16 13 16 17 16 13 6 4 10 10 11 16 18 20 23 23 21 15 16 18 19 17 16 17 7 3 4 3 6 4 6 5 5 6 5 3 4 4
9 17 15 16 18 27 28 26 19 18 8 11 12 16 12 9 10 16 20 20 20 22 26 22 19 14 16 15 15 12 7 6 4 4 2 3 3 6 6 6 5 5 6
22 23 19 25 27 24 25 30 33 24 24 24 28 18 18 15 11 14 15 11 12 20 22 15 10 7 8 9 10 8 6 4 5 8 6 6 4 7 7 8 7 4 5
9 17 25 21 17 25 29 32 31 29 28 27 26 23 15 14 18 16 16 18 25 24 23 21 18 10 8 7 9 12 13 8 7 6 6 7 6 9 6 6 7 6 8
Wind_Direction
176 171 173 164 161 158 154 152 151 153 162 159 159 152 148 146 146 139 137 134 130 127 126 122 118 112 108 105 103 105 98 96 97 94 97 94 84 80 75 77 72 71 65
170 171 174 167 160 159 155 154 150 154 158 163 161 154 149 146 138 137 135 132 131 129 128 124 115 112 108 106 106 103 98 105 103 97 81 85 91 82 80 81 76 72 67
169 170 171 170 165 162 158 159 157 151 156 166 161 156 152 145 142 138 135 135 132 130 133 128 127 121 111 107 109 109 108 110 107 99 89 86 83 86 100 98 81 72 67
170 168 171 172 167 168 161 160 162 157 151 166 163 159 151 145 141 139 137 138 136 135 135 131 131 126 119 114 113 116 115 114 106 89 88 85 82 82 84 82 76 76 69
173 170 173 174 170 174 164 163 162 162 150 161 167 161 153 147 142 140 141 141 142 143 137 141 135 132 127 119 116 114 117 113 99 90 88 86 82 77 79 80 74 73 74
172 176 180 176 174 177 168 165 163 163 162 153 163 161 150 143 143 143 147 148 149 144 139 134 128 126 127 124 109 109 112 107 88 90 85 81 82 80 78 76 74 72 70
172 180 178 180 177 177 165 167 167 165 168 160 158 162 151 146 143 144 151 151 146 145 135 131 134 133 129 119 108 108 112 106 99 91 87 83 81 80 79 78 75 71 69
179 182 180 182 181 170 171 169 168 168 168 168 151 157 150 143 150 145 149 153 148 142 137 136 138 136 133 127 118 113 109 104 94 98 94 91 87 80 78 76 76 73 71
199 189 183 179 180 173 173 172 167 165 165 173 158 147 146 152 152 147 147 150 150 147 145 142 138 136 137 136 128 125 120 112 109 111 109 105 104 86 77 74 72 70 66
261 204 191 179 178 178 180 173 165 162 166 164 170 158 157 159 153 150 149 152 156 159 157 154 150 148 144 142 137 133 131 116 131 127 122 139 124 109 74 68 67 62 55
247 339 206 185 180 180 185 173 164 162 161 166 165 171 171 159 156 156 161 160 165 166 166 167 165 166 166 162 161 155 137 164 173 176 162 174 124 143 8 37 37 38 35
181 296 288 199 187 181 185 177 169 162 159 162 167 169 168 162 163 166 166 168 167 170 170 174 178 178 166 182 191 188 186 190 190 203 204 202 164 154 263 335 353 357 351
195 251 301 238 201 185 185 182 178 168 165 166 167 168 170 168 172 166 170 172 174 175 177 178 187 188 195 196 198 201 203 210 211 208 217 214 219 216 222 273 291 300 314
172 213 242 238 212 195 192 189 184 174 170 169 170 169 169 172 172 175 178 180 183 187 191 192 198 202 199 204 210 214 216 216 212 218 233 227 231 242 242 246 270 278 286
179 182 212 225 211 196 194 196 194 183 176 179 173 177 176 179 177 179 183 185 189 193 197 201 205 206 207 209 214 213 219 226 227 232 236 247 242 252 260 257 259 266 259
170 188 203 209 230 224 203 197 194 196 186 183 183 185 185 184 184 187 189 192 198 201 203 205 208 210 209 211 222 224 233 235 234 238 239 248 260 269 271 266 265 264 269
186 196 190 188 233 254 228 207 197 189 195 191 191 194 193 191 190 190 196 204 207 206 205 209 209 208 213 218 225 228 235 239 250 236 239 255 268 283 284 286 274 269 262
191 188 192 191 217 218 211 201 201 191 192 196 201 201 202 203 200 202 206 214 214 210 202 201 202 210 217 219 224 223 230 236 241 253 259 263 273 278 290 292 280 276 269
190 188 186 187 201 207 193 194 199 199 195 196 197 204 208 209 211 212 216 219 212 207 213 208 207 206 216 218 220 227 222 236 252 260 271 273 279 282 282 286 285 276 270
189 181 184 185 192 188 190 182 187 205 206 204 208 213 208 210 218 222 225 223 213 209 211 215 212 211 214 213 211 217 233 244 259 264 275 279 282 286 292 287 280 279 269
198 197 195 196 182 178 171 183 182 203 209 204 221 227 225 222 224 227 227 228 219 217 214 215 214 208 209 208 215 233 241 247 257 259 261 263 270 293 294 306 287 274 277
265 210 206 208 185 189 196 183 192 202 199 224 233 242 245 238 227 231 231 234 230 228 221 212 209 207 212 205 215 225 250 221 244 197 282 265 277 289 288 318 313 306 287
275 244 252 241 201 219 207 222 235 221 222 248 279 265 254 252 252 236 234 234 239 241 233 220 216 213 210 203 212 226 196 217 228 257 234 277 276 274 289 306 318 317 287
268 246 244 236 229 216 216 227 234 250 234 238 254 274 248 284 271 258 259 258 266 259 241 228 225 231 232 219 213 213 237 251 258 286 232 231 250 273 273 279 298 297 281
225 232 224 220 233 221 217 216 219 220 221 224 239 295 249 266 288 283 260 248 260 242 221 210 176 179 217 233 249 252 242 242 232 235 270 244 284 270 274 286 285 267 269
224 233 235 229 220 224 226 228 215 200 220 223 222 234 230 259 253 258 267 258 241 218 208 202 191 163 217 196 237 244 239 240 222 210 227 261 283 285 274 271 272 272 273